CW9944 Porsgrunn NO current weather conditions

sailwx.info

Wind from 325

Air temperature 11.7° C
Dewpoint 11.2° C

Last reported at 2014-Oct-24 21:24 UTC.
Time now 2014-Oct-25 15:29 UTC

Location: N 59°07' E 009°39'.
View on Google Maps.

See reports from other nearby stations

  
Tides and Currents Weather Stations Pressure Air Temp Water Temp Dewpoint Dewpoint Depression Visibility Wind Speed Wind Dir Waves Ship Positions
date/time (UTC)wind fromknots sea level pressurealtimeterstation pressurevisibilityair tempwater tempwave heightnotes
2014-Oct-24 21:24 325 11.7
2014-Oct-24 21:14 11.7
2014-Oct-24 21:04 022 1 gusting 5 11.7
2014-Oct-24 20:54 12.2
2014-Oct-24 20:44 337 5 gusting 6 12.2
2014-Oct-24 20:34 022 1 gusting 2 12.2
2014-Oct-24 20:24 12.2
2014-Oct-24 20:14 338 0 gusting 2 12.2
2014-Oct-24 20:04 045 0 gusting 7 12.2
2014-Oct-24 19:54 024 3 gusting 4 12.2
2014-Oct-24 19:44 022 1 gusting 4 12.2
2014-Oct-24 19:34 338 3 gusting 5 12.2
2014-Oct-24 19:24 321 0 gusting 5 12.2
2014-Oct-24 19:14 158 2 gusting 4 12.2
2014-Oct-24 19:04 338 0 gusting 6 12.2
2014-Oct-24 18:54 343 1 gusting 4 12.2
2014-Oct-24 18:44 315 2 gusting 2 12.2
2014-Oct-24 18:34 292 12.2
2014-Oct-24 18:24 317 1 gusting 4 12.2
2014-Oct-24 18:14 12.2
2014-Oct-24 18:04 022 0 gusting 6 12.2
2014-Oct-24 17:54 082 0 gusting 6 12.2
2014-Oct-24 17:44 001 1 gusting 6 12.2
2014-Oct-24 17:34 068 1 gusting 6 12.2
2014-Oct-24 17:24 022 3 gusting 4 12.2
2014-Oct-24 17:14 021 0 gusting 5 12.2
2014-Oct-24 17:04 12.2
2014-Oct-24 16:54 025 2 gusting 6 12.2
2014-Oct-24 16:44 045 2 gusting 4 12.2
2014-Oct-24 16:34 045 3 gusting 6 12.2
2014-Oct-24 16:24 008 3 gusting 6 12.2
2014-Oct-24 16:14 011 12.2
2014-Oct-24 16:04 12.2
2014-Oct-24 15:54 333 6 gusting 8 12.2
2014-Oct-24 15:44 333 5 gusting 5 12.2
2014-Oct-24 15:34 315 2 gusting 5 12.2
2014-Oct-24 15:24 351 0 gusting 1 12.2
2014-Oct-24 15:14 022 5 gusting 7 12.8
2014-Oct-24 15:04 022 0 gusting 4 12.8
2014-Oct-24 14:54 348 1 gusting 6 12.8
2014-Oct-24 14:44 051 1 gusting 2 12.8
2014-Oct-24 14:14 022 4 gusting 7 12.8
2014-Oct-24 14:04 022 6 gusting 7 12.8
2014-Oct-24 13:54 347 1 gusting 5 12.8
2014-Oct-24 13:44 022 5 gusting 6 12.8
2014-Oct-24 13:34 022 12.8
2014-Oct-24 13:24 022 0 gusting 2 12.8
2014-Oct-24 13:14 12.8
2014-Oct-24 13:04 045 5 gusting 6 12.8
2014-Oct-24 12:54 12.8
2014-Oct-24 12:44 022 3 gusting 8 12.8
2014-Oct-24 12:34 045 0 gusting 1 12.8
2014-Oct-24 12:24 007 12.8
2014-Oct-24 12:14 270 2 gusting 6 12.8
2014-Oct-24 12:04 022 1 gusting 4 12.8
2014-Oct-24 11:54 045 2 gusting 4 12.8
2014-Oct-24 11:44 022 1 gusting 5 13.3
2014-Oct-24 11:34 313 0 gusting 5 13.3
2014-Oct-24 11:24 022 2 gusting 4 13.3
2014-Oct-24 11:14 045 12.8
2014-Oct-24 11:04 12.8
2014-Oct-24 10:54 338 6 gusting 6 12.8
2014-Oct-24 10:44 012 1 gusting 5 12.8
2014-Oct-24 10:34 078 0 gusting 10 12.8
2014-Oct-24 10:24 341 1 gusting 1 12.8
2014-Oct-24 10:14 338 1 gusting 6 12.8
2014-Oct-24 10:04 045 5 gusting 6 12.8
2014-Oct-24 09:54 051 2 gusting 7 12.8
2014-Oct-24 09:44 12.8
2014-Oct-24 09:34 338 2 gusting 2 12.8
2014-Oct-24 09:24 314 1 gusting 6 12.2
2014-Oct-24 09:14 12.2
2014-Oct-24 09:04 051 1 gusting 7 12.2
2014-Oct-24 08:54 074 2 gusting 6 12.2
2014-Oct-24 08:44 001 7 gusting 7 12.2
2014-Oct-24 08:34 068 0 gusting 6 12.2
2014-Oct-24 08:24 12.2
2014-Oct-24 08:14 022 5 gusting 11 12.2
2014-Oct-24 08:04 022 3 gusting 11 11.7
2014-Oct-23 20:24 045 2 gusting 4 10.6
2014-Oct-23 20:14 338 0 gusting 6 10.6
2014-Oct-23 20:04 339 10.6
2014-Oct-23 19:54 022 4 gusting 6 10.6
2014-Oct-23 19:44 357 0 gusting 1 10.6
2014-Oct-23 19:34 10.6
2014-Oct-23 19:24 10.6
2014-Oct-23 19:14 10.6
2014-Oct-23 19:04 338 2 gusting 5 10.6
2014-Oct-23 18:54 010 0 gusting 2 10.0
2014-Oct-23 18:44 10.0
2014-Oct-23 18:24 315 2 gusting 2 10.0
2014-Oct-23 18:14 339 4 gusting 6 10.0
2014-Oct-23 18:04 045 2 gusting 5 10.0
2014-Oct-23 17:54 10.0
2014-Oct-23 17:44 340 5 gusting 6 10.0
2014-Oct-23 17:34 10.0
2014-Oct-23 17:24 022 4 gusting 5 10.0
2014-Oct-23 17:14 354 1 gusting 6 10.6
2014-Oct-23 17:04 338 0 gusting 5 10.6
2014-Oct-23 16:54 015 1 gusting 4 10.6
2014-Oct-23 16:44 357 4 gusting 5 10.6
2014-Oct-23 16:34 022 0 gusting 2 10.6
2014-Oct-23 16:24 007 3 gusting 4 10.6
2014-Oct-23 16:14 014 4 gusting 4 10.6
2014-Oct-23 16:04 045 2 gusting 2 10.6
2014-Oct-23 15:54 028 4 gusting 4 10.6
2014-Oct-23 15:44 006 2 gusting 4 10.6
2014-Oct-23 15:34 068 2 gusting 2 10.6
2014-Oct-23 15:24 10.6
2014-Oct-23 15:14 10.6
2014-Oct-23 15:04 10.6